Terug naar catalogus

STARLINK-32580

ActiefCommunicatieVLEO
NORAD 62075·PAYLOAD·🇺🇸 United States

Gelanceerd Nov 24, 2024 vanaf Vandenberg Space Force Base

Loading…

Volgende Passages (komende 24 uur)

TLE

VersSource: CelesTrak SupGP

Epoch: Sep 15, 2026, 02:53 UTC

1 62075C 24217U   26258.12062500  .00036703  00000+0  10845-2 0  2581
2 62075  53.1611  20.7456 0001260  88.2610 172.0149 15.34368342    11

Volg STARLINK-32580 in realtime met AllMySat

Download on the App Store